Weather History for Grand Rapids, MI

Change the Weather History Date:

Tuesday, July 10, 2012

  Actual Average Record
Temperature  
Mean Temperature 74 °F 73 °F  
Max Temperature 86 °F 83 °F 102 °F (1936)
Min Temperature 61 °F 62 °F 45 °F (1963)
Degree Days  
Heating Degree Days 0 0  
Month to date heating degree days 0 0  
Since 1 June heating degree days 28 45  
Since 1 July heating degree days 0 0  
Cooling Degree Days 9 8  
Month to date cooling degree days 180 77  
Year to date cooling degree days 496 269  
Since 1 June cooling degree days 388 222  
Growing Degree Days 24 (Base 50)    
Moisture  
Dew Point 53 °F    
Average Humidity 54    
Maximum Humidity 78    
Minimum Humidity 29    
Precipitation  
Precipitation 0.00 in 0.12 in 1.48 in (1942)
Month to date precipitation 0.03 1.19  
Year to date precipitation 16.35 18.54  
Snow  
Snow 0.00 in 0.00 in 0.00 in (2006)
Month to date snowfall 0.0 0.0  
Since 1 June snowfall 0.0 0.0  
Since 1 July snowfall 0.0 0.0  
Snow Depth 0.00 in    
Sea Level Pressure  
Sea Level Pressure 30.11 in    
Wind  
Wind Speed 6 mph (NE)    
Max Wind Speed 15 mph    
Max Gust Speed 25 mph    
Visibility 10 miles    
Events      
T = Trace of Precipitation, MM = Missing Value Source: NWS Daily Summary

Daily Weather History Graph

Daily Weather History Graph

Search for Another Location

Airport:

Trip Planner

Search our weather history database for the weather conditions in past years. The results will help you decide how hot, cold, wet, or windy it might be!

Date:

Astronomy

Jul. 10, 2012 Rise Set
Actual Time 6:13 AM EDT 9:21 PM EDT
Civil Twilight 5:38 AM EDT 9:55 PM EDT
Nautical Twilight 4:54 AM EDT 10:39 PM EDT
Astronomical Twilight 4:01 AM EDT 11:32 PM EDT
Moon 12:25 AM EDT (7/10) 1:51 PM EDT (7/10)
Length of Visible Light 16h 16m
Length of Day
15h 08m
Waning Gibbous, 54% of the Moon is Illuminated
Jul 10
Waning Gibbous
Jul 10
Last Quarter
Jul 19
New
Jul 26
First Quarter
Aug 1
Full

Hourly Weather History & Observations

Time (EDT) Temp. Dew Point Humidity Pressure Visibility Wind Dir Wind Speed Gust Speed Precip Events Conditions
12:53 AM 70.0 °F 55.9 °F 61% 30.06 in 10.0 mi NE 8.1 mph - N/A   Clear
1:53 AM 68.0 °F 57.0 °F 68% 30.07 in 10.0 mi NE 6.9 mph - N/A   Clear
2:53 AM 66.0 °F 57.0 °F 73% 30.07 in 10.0 mi ENE 5.8 mph - N/A   Clear
3:53 AM 64.0 °F 57.0 °F 78% 30.08 in 10.0 mi NNE 5.8 mph - N/A   Clear
4:53 AM 62.1 °F 55.9 °F 80% 30.09 in 10.0 mi NNE 5.8 mph - N/A   Clear
5:53 AM 62.1 °F 55.9 °F 80% 30.10 in 10.0 mi North 3.5 mph - N/A   Partly Cloudy
6:53 AM 62.1 °F 55.9 °F 80% 30.12 in 10.0 mi NNE 3.5 mph - N/A   Partly Cloudy
7:53 AM 66.0 °F 55.9 °F 70% 30.13 in 10.0 mi NE 8.1 mph - N/A   Partly Cloudy
8:53 AM 70.0 °F 53.1 °F 55% 30.15 in 10.0 mi ENE 9.2 mph - N/A   Partly Cloudy
9:53 AM 73.0 °F 52.0 °F 48% 30.15 in 10.0 mi East 9.2 mph - N/A   Partly Cloudy
10:53 AM 77.0 °F 52.0 °F 42% 30.15 in 10.0 mi East 10.4 mph - N/A   Partly Cloudy
11:53 AM 79.0 °F 51.1 °F 38% 30.14 in 10.0 mi Variable 3.5 mph - N/A   Partly Cloudy
12:53 PM 81.0 °F 52.0 °F 36% 30.13 in 10.0 mi East 4.6 mph - N/A   Scattered Clouds
1:53 PM 82.9 °F 51.1 °F 33% 30.12 in 10.0 mi Calm Calm - N/A   Scattered Clouds
2:53 PM 84.0 °F 51.1 °F 32% 30.12 in 10.0 mi NE 4.6 mph - N/A   Mostly Cloudy
3:53 PM 84.9 °F 51.1 °F 31% 30.11 in 10.0 mi ENE 8.1 mph - N/A   Mostly Cloudy
4:53 PM 82.9 °F 48.9 °F 31% 30.10 in 10.0 mi NE 10.4 mph - N/A   Mostly Cloudy
5:53 PM 84.9 °F 48.9 °F 29% 30.09 in 10.0 mi North 9.2 mph - N/A   Scattered Clouds
6:53 PM 82.9 °F 50.0 °F 32% 30.09 in 10.0 mi ENE 5.8 mph - N/A   Scattered Clouds
7:53 PM 81.0 °F 50.0 °F 34% 30.09 in 10.0 mi ENE 6.9 mph - N/A   Partly Cloudy
8:53 PM 78.1 °F 53.1 °F 42% 30.09 in 10.0 mi East 4.6 mph - N/A   Scattered Clouds
9:53 PM 75.0 °F 53.1 °F 46% 30.10 in 10.0 mi ENE 4.6 mph - N/A   Partly Cloudy
10:53 PM 73.0 °F 53.1 °F 49% 30.12 in 10.0 mi ENE 3.5 mph - N/A   Clear
11:53 PM 68.0 °F 54.0 °F 61% 30.12 in 10.0 mi NE 3.5 mph - N/A   Clear